Regional Weather Roundup
Issued by NWS

Home | Current Version | Previous Version | Text Only | Print | Product List | Glossary Off
Versions: 1 2 3 4 5 6 7 8 9 10 11 12 13 14 15 16 17 18 19 20 21 22 23 24 25 26 27 28 29 30 31 32 33 34 35 36 37 38 39 40 41 42 43 44 45 46 47 48 49 50

000
ASUS43 KFSD 281310
RWRSD

WEATHER ROUNDUP FOR SOUTH DAKOTA
NATIONAL WEATHER SERVICE SIOUX FALLS SD
800 AM CDT THU APR 28 2016

NOTE: "FAIR" INDICATES FEW OR NO CLOUDS BELOW 12,000 FEET WITH NO
SIGNIFICANT WEATHER AND/OR OBSTRUCTIONS TO VISIBILITY.


SDZ001>005-009-010-012>017-281400-
NORTHWEST AND NORTH CENTRAL SOUTH DAKOTA

CITY           SKY/WX    TMP DP  RH WIND       PRES   REMARKS
BUFFALO          N/A     34  32  92 N12       29.97R WCI  25
FAITH            N/A     32  30  92 NE8       30.02R WCI  25
MOBRIDGE       LGT RAIN  38  36  92 N7        30.01R
$$

SDZ012>016-024>037-041>051-057-063-072>074-281400-
SOUTHWEST AND SOUTH CENTRAL SOUTH DAKOTA

CITY           SKY/WX    TMP DP  RH WIND       PRES   REMARKS
RAPID CTY ARPT CLOUDY    32  32 100 N13       30.00R FOG     WCI  22
PIERRE         CLOUDY    36  33  89 N5        29.99R
CUSTER         CLOUDY    28  22  78 VRB6      29.92R WCI  22
ELLSWORTH AFB  FOG       33  33 100 N12       30.00  VSB 1   WCI  24
PHILIP         CLOUDY    34  33  96 N10       30.02R WCI  26
PINE RIDGE     CLOUDY    32  30  92 NW8       29.99R WCI  25
WINNER         LGT RAIN  37  34  89 N13       29.97R FOG
$$

SDZ004>011-016>023-039-040-281400-
NORTHEAST SOUTH DAKOTA

CITY           SKY/WX    TMP DP  RH WIND       PRES   REMARKS
ABERDEEN       CLOUDY    40  32  73 N9        30.00R
WATERTOWN      RAIN      35  31  85 NE10      29.95R FOG     WCI  27
BROOKINGS      LGT RAIN  35  33  92 NE10      29.91  WCI  27
SISSETON         N/A     39  31  72 E14       29.99R
$$

SDZ017-020-022-023-036>040-048>070-281400-
SOUTHEAST SOUTH DAKOTA

CITY           SKY/WX    TMP DP  RH WIND       PRES   REMARKS
SIOUX FALLS    LGT RAIN  38  36  92 NE10      29.89R FOG
HURON          LGT RAIN  38  34  85 N8        29.96R
CHAMBERLAIN    CLOUDY    38  38  98 N8        29.97R
MITCHELL       LGT RAIN  38  36  92 N14       29.95R
YANKTON        CLOUDY    41  37  87 N10       29.89R
$$

ABBREVIATIONS USED IN REMARKS
   TC - TEMPERATURE IN CELSIUS
  WCI - WIND CHILL INDEX
   HX - HEAT INDEX
  VSB - VISIBILITY





USA.gov is the U.S. government's official web portal to all federal, state and local government web resources and services.